| time (UTC) | temp F | wind direction | speed MPH | gust MPH | rain 1hr in | rain 24hr in | rain mn in | humidity % | barometer mb |
| 20260903123008 | 47 | 236 | 0.0 | 2.0 | 0.00 | 0.17 | 0.00 | 90 | 1011.6 |
| 20260903121504 | 48 | 248 | 3.0 | 3.0 | 0.00 | 0.17 | 0.00 | 90 | 1011.8 |
| 20260903120029 | 48 | 53 | 0.0 | 1.0 | 0.00 | 0.17 | 0.00 | 89 | 1011.5 |
| 20260903114526 | 48 | 5 | 1.0 | 3.0 | 0.00 | 0.17 | 0.00 | 89 | 1011.5 |
| 20260903113025 | 49 | 298 | 2.0 | 3.0 | 0.00 | 0.17 | 0.00 | 88 | 1011.7 |
| 20260903111533 | 49 | 9 | 0.0 | 3.0 | 0.00 | 0.17 | 0.00 | 88 | 1011.8 |
| 20260903110016 | 49 | 341 | 1.0 | 2.0 | 0.00 | 0.17 | 0.00 | 88 | 1011.5 |
| 20260903104509 | 48 | 26 | 1.0 | 3.0 | 0.00 | 0.17 | 0.00 | 88 | 1011.5 |
| 20260903103010 | 49 | 90 | 2.0 | 3.0 | 0.00 | 0.17 | 0.00 | 86 | 1011.4 |
| 20260903101506 | 49 | 236 | 0.0 | 2.0 | 0.00 | 0.17 | 0.00 | 85 | 1011.3 |
| 20260903100028 | 49 | 250 | 1.0 | 3.0 | 0.00 | 0.17 | 0.00 | 85 | 1011.3 |
| 20260903094530 | 49 | 226 | 1.0 | 2.0 | 0.00 | 0.17 | 0.00 | 84 | 1011.2 |
| 20260903093035 | 49 | 92 | 1.0 | 3.0 | 0.00 | 0.17 | 0.00 | 85 | 1011.1 |
| 20260903091531 | 49 | 103 | 2.0 | 3.0 | 0.00 | 0.17 | 0.00 | 84 | 1011.2 |
| 20260903090018 | 49 | 109 | 1.0 | 2.0 | 0.00 | 0.17 | 0.00 | 84 | 1011.2 |
| 20260903084514 | 49 | 255 | 0.0 | 2.0 | 0.00 | 0.17 | 0.00 | 83 | 1011.3 |
| 20260903083012 | 50 | 318 | 2.0 | 3.0 | 0.00 | 0.17 | 0.00 | 81 | 1011.3 |
| 20260903081531 | 50 | 153 | 0.0 | 2.0 | 0.00 | 0.17 | 0.00 | 80 | 1011.3 |
| 20260903080033 | 50 | 144 | 1.0 | 4.0 | 0.00 | 0.17 | 0.00 | 81 | 1011.4 |
| 20260903074528 | 50 | 267 | 4.0 | 5.0 | 0.00 | 0.17 | 0.00 | 80 | 1011.3 |
| 20260903073039 | 50 | 129 | 1.0 | 3.0 | 0.00 | 0.17 | 0.00 | 79 | 1011.2 |
| 20260903071526 | 49 | 150 | 2.0 | 4.0 | 0.00 | 0.17 | 0.00 | 81 | 1011.2 |
| 20260903070028 | 49 | 134 | 1.0 | 3.0 | 0.00 | 0.17 | 0.00 | 85 | 1011.2 |
| 20260903064519 | 50 | 225 | 1.0 | 4.0 | 0.00 | 0.17 | 0.00 | 83 | 1011.3 |
| 20260903063015 | 50 | 132 | 3.0 | 4.0 | 0.00 | 0.17 | 0.00 | 79 | 1011.2 |
| 20260903061553 | 51 | 127 | 2.0 | 2.0 | 0.00 | 0.17 | 0.00 | 79 | 1011.2 |
| 20260903060034 | 51 | 130 | 2.0 | 3.0 | 0.00 | 0.17 | 0.00 | 81 | 1011.3 |
| 20260903054531 | 51 | 234 | 2.0 | 7.0 | 0.00 | 0.17 | 0.17 | 81 | 1011.3 |
| 20260903053029 | 51 | 225 | 1.0 | 3.0 | 0.00 | 0.17 | 0.17 | 83 | 1011.5 |
| 20260903051529 | 52 | 225 | 1.0 | 3.0 | 0.00 | 0.17 | 0.17 | 83 | 1011.6 |
| 20260903050027 | 52 | 219 | 4.0 | 6.0 | 0.00 | 0.17 | 0.17 | 78 | 1011.6 |
| 20260903044523 | 53 | 230 | 2.0 | 3.0 | 0.00 | 0.17 | 0.17 | 78 | 1011.7 |
| 20260903043019 | 53 | 205 | 0.0 | 6.0 | 0.00 | 0.17 | 0.17 | 77 | 1011.8 |
| 20260903041514 | 52 | 148 | 2.0 | 4.0 | 0.00 | 0.17 | 0.17 | 82 | 1011.7 |
| 20260903040016 | 52 | 135 | 2.0 | 6.0 | 0.00 | 0.17 | 0.17 | 83 | 1011.8 |
| 20260903034512 | 54 | 352 | 1.0 | 3.0 | 0.00 | 0.17 | 0.17 | 80 | 1011.5 |
| 20260903033005 | 54 | 315 | 0.0 | 3.0 | 0.00 | 0.18 | 0.17 | 80 | 1011.7 |
| 20260903031505 | 54 | 111 | 1.0 | 2.0 | 0.00 | 0.20 | 0.17 | 79 | 1011.8 |
| 20260903030100 | 55 | 44 | 3.0 | 5.0 | 0.00 | 0.23 | 0.17 | 77 | 1011.7 |
| 20260903024527 | 56 | 28 | 3.0 | 4.0 | 0.00 | 0.26 | 0.17 | 76 | 1011.5 |
| 20260903023023 | 57 | 73 | 2.0 | 2.0 | 0.00 | 0.28 | 0.17 | 74 | 1011.5 |
| 20260903021520 | 58 | 46 | 2.0 | 4.0 | 0.00 | 0.32 | 0.17 | 71 | 1011.3 |
| 20260903020016 | 59 | 16 | 2.0 | 4.0 | 0.00 | 0.33 | 0.17 | 69 | 1011.3 |
| 20260903014511 | 60 | 38 | 3.0 | 5.0 | 0.00 | 0.34 | 0.17 | 68 | 1011.3 |
| 20260903013016 | 62 | 13 | 3.0 | 7.0 | 0.00 | 0.35 | 0.17 | 62 | 1011.2 |
| 20260903011512 | 63 | 295 | 1.0 | 3.0 | 0.00 | 0.38 | 0.17 | 55 | 1011.1 |
| 20260903010036 | 65 | 247 | 2.0 | 4.0 | 0.00 | 0.39 | 0.17 | 53 | 1011.2 |
| 20260903004529 | 65 | 290 | 2.0 | 4.0 | 0.00 | 0.39 | 0.17 | 54 | 1011.3 |
| 20260903003028 | 67 | 307 | 1.0 | 3.0 | 0.00 | 0.39 | 0.17 | 51 | 1011.4 |
| 20260903001526 | 67 | 246 | 2.0 | 4.0 | 0.00 | 0.39 | 0.17 | 52 | 1011.5 |
| 20260903000038 | 65 | 209 | 0.0 | 6.0 | 0.00 | 0.42 | 0.17 | 54 | 1011.7 |
| 20260902234524 | 65 | 109 | 1.0 | 4.0 | 0.00 | 0.42 | 0.17 | 52 | 1011.7 |
| 20260902233015 | 66 | 293 | 2.0 | 5.0 | 0.00 | 0.42 | 0.17 | 53 | 1011.9 |
| 20260902231537 | 66 | 241 | 4.0 | 9.0 | 0.00 | 0.42 | 0.17 | 55 | 1012.1 |
| 20260902230032 | 65 | 227 | 2.0 | 7.0 | 0.00 | 0.43 | 0.17 | 59 | 1012.3 |
| 20260902224544 | 63 | 235 | 3.0 | 4.0 | 0.00 | 0.49 | 0.17 | 60 | 1012.7 |
| 20260902223033 | 62 | 117 | 1.0 | 4.0 | 0.00 | 0.49 | 0.17 | 62 | 1013.0 |
| 20260902221537 | 63 | 232 | 4.0 | 8.0 | 0.00 | 0.49 | 0.17 | 58 | 1013.3 |
| 20260902220047 | 63 | 246 | 2.0 | 9.0 | 0.00 | 0.49 | 0.17 | 55 | 1013.4 |
| 20260902214525 | 63 | 151 | 1.0 | 10.0 | 0.00 | 0.49 | 0.17 | 56 | 1013.7 |
| 20260902213018 | 61 | 232 | 4.0 | 6.0 | 0.00 | 0.49 | 0.17 | 64 | 1013.6 |
| 20260902211532 | 58 | 122 | 1.0 | 7.0 | 0.00 | 0.49 | 0.17 | 71 | 1013.8 |
| 20260902210031 | 56 | 125 | 6.0 | 11.0 | 0.00 | 0.49 | 0.17 | 72 | 1014.0 |
| 20260902204535 | 55 | 117 | 7.0 | 9.0 | 0.00 | 0.49 | 0.17 | 78 | 1013.9 |
| 20260902203031 | 53 | 115 | 8.0 | 11.0 | 0.01 | 0.49 | 0.17 | 81 | 1013.4 |
| 20260902201542 | 52 | 102 | 3.0 | 7.0 | 0.04 | 0.49 | 0.17 | 82 | 1013.7 |
| 20260902200030 | 51 | 223 | 3.0 | 6.0 | 0.08 | 0.49 | 0.17 | 83 | 1014.0 |
| 20260902194532 | 52 | 118 | 9.0 | 11.0 | 0.15 | 0.49 | 0.17 | 79 | 1013.6 |
| 20260902193038 | 52 | 342 | 5.0 | 17.0 | 0.16 | 0.48 | 0.16 | 79 | 1013.3 |
| 20260902191520 | 51 | 144 | 9.0 | 15.0 | 0.13 | 0.45 | 0.13 | 81 | 1014.8 |
| 20260902190016 | 53 | 138 | 12.0 | 18.0 | 0.09 | 0.41 | 0.09 | 78 | 1014.9 |
| 20260902184520 | 56 | 227 | 2.0 | 17.0 | 0.02 | 0.34 | 0.02 | 71 | 1014.5 |
| 20260902183011 | 60 | 233 | 16.0 | 23.0 | 0.00 | 0.32 | 0.00 | 60 | 1013.5 |
| 20260902181509 | 62 | 226 | 8.0 | 15.0 | 0.00 | 0.32 | 0.00 | 59 | 1012.4 |
| 20260902180029 | 63 | 268 | 13.0 | 23.0 | 0.00 | 0.32 | 0.00 | 58 | 1011.9 |
| 20260902174528 | 65 | 232 | 2.0 | 13.0 | 0.00 | 0.32 | 0.00 | 58 | 1011.3 |
| 20260902173027 | 65 | 257 | 2.0 | 7.0 | 0.00 | 0.32 | 0.00 | 62 | 1011.0 |
| 20260902171524 | 64 | 211 | 1.0 | 5.0 | 0.00 | 0.32 | 0.00 | 61 | 1010.6 |
| 20260902170022 | 65 | 247 | 5.0 | 6.0 | 0.00 | 0.32 | 0.00 | 62 | 1010.1 |
| 20260902164518 | 64 | 146 | 1.0 | 8.0 | 0.00 | 0.32 | 0.00 | 63 | 1009.8 |
| 20260902163013 | 63 | 126 | 7.0 | 12.0 | 0.00 | 0.32 | 0.00 | 64 | 1009.9 |
| 20260902161512 | 61 | 124 | 4.0 | 9.0 | 0.00 | 0.32 | 0.00 | 66 | 1010.1 |
| 20260902160032 | 60 | 242 | 2.0 | 8.0 | 0.00 | 0.32 | 0.00 | 70 | 1010.0 |
| 20260902154532 | 60 | 224 | 3.0 | 7.0 | 0.00 | 0.32 | 0.00 | 70 | 1009.9 |
| 20260902153046 | 59 | 232 | 1.0 | 4.0 | 0.00 | 0.32 | 0.00 | 73 | 1009.8 |
| 20260902151529 | 58 | 233 | 3.0 | 4.0 | 0.00 | 0.32 | 0.00 | 75 | 1009.8 |
| 20260902150028 | 57 | 201 | 0.0 | 2.0 | 0.00 | 0.32 | 0.00 | 75 | 1009.8 |
| 20260902144524 | 57 | 231 | 2.0 | 5.0 | 0.00 | 0.32 | 0.00 | 75 | 1009.9 |
| 20260902143019 | 55 | 241 | 1.0 | 3.0 | 0.00 | 0.32 | 0.00 | 78 | 1009.9 |
| 20260902141515 | 55 | 211 | 4.0 | 8.0 | 0.00 | 0.32 | 0.00 | 78 | 1009.8 |
| 20260902140030 | 54 | 170 | 3.0 | 8.0 | 0.00 | 0.32 | 0.00 | 79 | 1009.6 |
| 20260902134538 | 54 | 214 | 3.0 | 9.0 | 0.00 | 0.32 | 0.00 | 79 | 1010.0 |
| 20260902133031 | 54 | 98 | 1.0 | 3.0 | 0.00 | 0.32 | 0.00 | 79 | 1010.0 |
| 20260902131539 | 54 | 202 | 2.0 | 5.0 | 0.00 | 0.32 | 0.00 | 81 | 1010.1 |
| 20260902130029 | 54 | 85 | 1.0 | 4.0 | 0.00 | 0.32 | 0.00 | 80 | 1010.2 |
| 20260902124529 | 55 | 132 | 4.0 | 15.0 | 0.00 | 0.32 | 0.00 | 79 | 1010.2 |